Station 44011 (LLNR 825) - GEORGES BANK 170 NM East of Hyannis, MA Image indicating link to RSS feed of recent meteorological observations for station 44011


Conditions at 44011 as of
(1:40 pm ADT)
1640 GMT on 05/22/2024:
     

Click on the graph icon in the table below to see a time series plot of the last five days of that observation.

5-day plot - Wind Direction Wind Direction (WDIR):SSW ( 200 deg true )
5-day plot - Wind Speed Wind Speed (WSPD): 11.7 kts
5-day plot - Wind Gust Wind Gust (GST): 13.6 kts
5-day plot - Atmospheric Pressure Atmospheric Pressure (PRES):30.04 in
5-day plot - Air Temperature Air Temperature (ATMP): 50.2 °F
5-day plot - Water Temperature Water Temperature (WTMP): 45.3 °F
5-day plot - Wind Chill Wind Chill (CHILL): 45.3 °F
5-day plot - Wind Speed at 10 Meters Wind Speed at 10 meters (WSPD10M): 13.6 kts
5-day plot - Wind Speed at 20 Meters Wind Speed at 20 meters (WSPD20M): 13.6 kts
5-day plot -  Wind Speed, Wind Gust and Atmospheric Pressure Combined plot of Wind Speed, Gust, and Air Pressure
Supplemental Measurements
Highest 1-minute Wind Speed
Time (ADT)5-day plot - 1-Minute Wind Speed WSPD 5-day plot - 1-Minute Wind Direction WDIR
1:34 pm 11.7 kts-
Previous observations
TIME
(ADT)
5-day plot - Wind Direction
WDIR
 
5-day plot - Wind Speed
WSPD
kts
5-day plot - Wind Gust
GST
kts
5-day plot - Wave Height
WVHT
ft
5-day plot - Dominant Wave Period
DPD
sec
5-day plot - Average Wave Period
APD
sec
5-day plot - Mean Wave Direction
MWD
 
5-day plot - Atmospheric Pressure
PRES
in
5-day plot - Pressure Tendency
PTDY
in
5-day plot - Air Temperature
ATMP
°F
5-day plot - Water Temperature
WTMP
°F
5-day plot - Dew Point
DEWP
°F
5-day plot - Salinity
SAL
psu
5-day plot - Visibility
VIS
nmi
5-day plot - Tide (above MLLW)
TIDE
ft
2024-05-22 01:30 pmSSW 11.7 13.6----30.04- 50.2 45.3----
2024-05-22 01:20 pmSSW 11.7 13.6 2.6 84.7NNE30.04- 50.0 45.1----
2024-05-22 01:10 pmSSW 11.7 13.6 2.6-4.7NNE30.04- 49.8 45.3----
2024-05-22 01:00 pmSSW 11.7 13.6----30.04-0.04 49.6 45.3----
2024-05-22 12:50 pmSSW 11.7 13.6 2.6 85.0 NE30.04- 49.5 45.5----
2024-05-22 12:40 pmSSW 11.7 13.6----30.05- 49.5 45.3----
2024-05-22 12:30 pmSSW 11.7 13.6----30.05- 49.3 45.3----
2024-05-22 12:20 pmSSW 9.7 11.7 2.3 85.1NNE30.05- 49.3 45.3----
2024-05-22 12:10 pmSSW 9.7 11.7 2.3-5.1NNE30.06- 49.1 45.5----
2024-05-22 12:00 pmSSW 9.7 11.7----30.06-0.01 48.9 45.1----
2024-05-22 11:50 amSSW 9.7 11.7 2.6 75.4NNE30.06- 48.7 44.8----
2024-05-22 11:40 amSSW 9.7 11.7----30.07- 48.6 45.3----
2024-05-22 11:30 amSSW 9.7 9.7----30.07- 48.4 45.1----
2024-05-22 11:20 amSSW 9.7 9.7 2.6 85.2 E30.07- 48.0 45.1----
2024-05-22 11:10 amSSW 7.8 9.7 2.6-5.2 E30.07- 48.0 45.1----
2024-05-22 11:00 amSSW 7.8 9.7----30.08+0.03 48.0 45.3----
2024-05-22 10:50 am SW 7.8 9.7 2.6 85.2ESE30.08- 48.0 45.1----
2024-05-22 10:40 am SW 7.8 9.7----30.08- 48.0 45.0----
2024-05-22 10:30 am SW 7.8 9.7----30.08- 48.2 45.0 48.2---
2024-05-22 10:20 am SW 7.8 9.7 2.3 85.5ESE30.09- 48.4 45.0 48.4---
2024-05-22 10:10 am SW 7.8 9.7 2.3-5.5ESE30.08- 48.2 44.8----
2024-05-22 10:00 am SW 9.7 11.7----30.08+0.04 48.0 44.8----
2024-05-22 09:50 am SW 9.7 9.7 2.6 85.7ESE30.08- 48.0 44.8----
2024-05-22 09:40 am SW 7.8 9.7 2.6-5.7ESE30.08- 48.2 44.8----
2024-05-22 09:30 am SW 7.8 9.7----30.07- 48.2 44.8----
2024-05-22 09:20 am SW 9.7 11.7 2.6 75.9ESE30.07- 48.2 44.8----
2024-05-22 09:10 am SW 7.8 9.7 2.6-5.9ESE30.07- 48.0 44.8----
2024-05-22 09:00 am SW 7.8 7.8----30.07+0.03 47.8 45.1----
2024-05-22 08:50 am SW 7.8 9.7 2.3 85.8 E30.06- 47.8 45.0----
2024-05-22 08:40 am SW 7.8 9.7----30.07- 48.0 45.0----
2024-05-22 08:30 am SW 7.8 9.7----30.06- 47.7 45.1----
2024-05-22 08:20 amSSW 7.8 9.7 2.3 86.1ENE30.06- 47.3 45.1----
2024-05-22 08:10 amSSW 7.8 9.7 2.3-6.1ENE30.05- 47.3 45.1----
2024-05-22 08:00 amSSW 7.8 7.8----30.04+0.02 47.3 45.0----
2024-05-22 07:50 amSSW 5.8 7.8 2.3 85.7ENE30.04- 47.3 45.3----
2024-05-22 07:40 amSSW 7.8 9.7----30.04- 47.1 45.5----
2024-05-22 07:30 amSSW 7.8 9.7----30.04- 46.9 45.5----
2024-05-22 07:20 amSSW 7.8 9.7 2.3 86.1NNE30.04- 47.1 45.7----
2024-05-22 07:10 amSSW 7.8 7.8 2.3-6.1NNE30.03- 47.3 45.5----
2024-05-22 07:00 amSSW 7.8 9.7----30.03+0.00 47.3 45.5----
2024-05-22 06:50 amSSW 7.8 9.7 2.6 86.3NNE30.04- 47.3 45.7----
2024-05-22 06:40 amSSW 7.8 9.7 2.6-6.3NNE30.03- 47.3 45.5----
2024-05-22 06:30 amSSW 7.8 9.7----30.03- 47.3 45.3----
2024-05-22 06:20 amSSW 7.8 9.7 2.6 86.2 NW30.04- 47.8 45.5----
2024-05-22 06:10 amSSW 7.8 7.8 2.6-6.2 NW30.03- 48.0 45.9----
2024-05-22 06:00 am SW 5.8 7.8----30.04+0.00 48.0 46.0 48.0---
2024-05-22 05:50 amWSW 3.9 5.8 2.6 76.1 W30.04- 48.0 45.9 48.0---
2024-05-22 05:40 am SW 3.9 3.9 2.6-6.1 W30.03- 47.8 45.7 47.8---
2024-05-22 05:30 am SW 3.9 5.8----30.03- 47.7 45.7 47.7---
2024-05-22 05:20 amSSW 3.9 5.8 3.0 86.3 W30.03- 47.7 45.5 47.7---
2024-05-22 05:10 amSSW 5.8 7.8 3.0-6.3 W30.02- 47.5 45.1 47.5---
2024-05-22 05:00 am S 5.8 7.8----30.02-0.02 47.7 45.1 47.7---
2024-05-22 04:50 am S 7.8 9.7 3.0 86.2WSW30.03- 48.0 45.1 48.0---
2024-05-22 04:40 amSSW 7.8 9.7----30.03- 48.0 45.0 48.0---
2024-05-22 04:30 amSSW 7.8 9.7----30.03- 48.2 44.8 48.2---
2024-05-22 04:20 amSSW 7.8 7.8 3.0-6.1WSW30.03-- 45.0----
2024-05-22 04:10 am SW 5.8 7.8 3.0-6.1WSW30.04- 48.4 45.0 48.4---
2024-05-22 04:00 am SW 7.8 7.8----30.04+0.00 48.4 44.6 48.4---
2024-05-22 03:50 am SW 5.8 7.8 3.0 86.1WSW30.04- 48.4 44.6 48.4---
2024-05-22 03:40 am SW 5.8 7.8----30.04- 48.4 44.4 48.4---
2024-05-22 03:30 am SW 5.8 7.8----30.04- 48.2 44.4 48.2---
2024-05-22 03:20 am SW 5.8 7.8 3.3 86.3 SW30.04- 48.4 44.4 48.4---
2024-05-22 03:10 am SW 5.8 7.8 3.3-6.3 SW30.03- 48.4 44.4 48.4---
2024-05-22 03:00 am SW 5.8 7.8----30.04-0.01 48.4 44.8 48.4---
2024-05-22 02:50 amWSW 5.8 7.8 3.3 86.4 SW30.04- 48.4 44.8 48.4---
2024-05-22 02:40 am SW 5.8 7.8----30.04- 48.4 44.8 48.4---
2024-05-22 02:30 amWSW 5.8 7.8----30.04- 48.4 45.0 48.4---
2024-05-22 02:20 amWSW 5.8 7.8 3.3 86.5SSW30.04- 48.4 45.3 48.4---
2024-05-22 02:10 amWSW 5.8 7.8 3.3-6.5SSW30.04- 48.4 45.5 48.4---
2024-05-22 02:00 amWSW 7.8 7.8----30.04+0.00 48.2 45.3 48.2---
2024-05-22 01:50 amWSW 7.8 7.8 3.3 86.4 S30.04- 48.2 45.5 48.2---
2024-05-22 01:40 amWSW 7.8 9.7----30.04- 48.4 45.3 48.4---
2024-05-22 01:30 amWSW 5.8 7.8----30.04- 48.4 45.7 48.4---
2024-05-22 01:20 amWSW 3.9 5.8 3.3 86.4SSE30.04- 48.2 45.7 48.2---
2024-05-22 01:10 amSSW 3.9 5.8 3.3-6.4SSE30.04- 48.0 45.7----
2024-05-22 01:00 amSSW 3.9 5.8----30.03+0.00 47.8 45.7----
2024-05-22 12:50 amSSW 3.9 5.8 3.3 86.6 SE30.03- 47.8 45.7----
2024-05-22 12:40 am SW 3.9 5.8 3.3-6.6 SE30.04- 47.8 45.5----
2024-05-22 12:30 amSSW 3.9 5.8----30.03- 47.8 45.5----
2024-05-22 12:20 amSSW 3.9 5.8 3.3 86.4ENE30.03- 47.5 45.5----
2024-05-22 12:10 amSSW 3.9 5.8 3.3-6.4ENE30.04- 47.5 45.3----
2024-05-22 12:00 amSSW 3.9 5.8----30.04+0.03 47.5 45.3----
2024-05-21 11:50 pm S 3.9 5.8 3.3 86.7 E30.04- 47.7 45.3----
2024-05-21 11:40 pm S 5.8 5.8----30.05- 47.5 45.3----
2024-05-21 11:30 pm S 5.8 5.8----30.05- 47.5 45.3----
2024-05-21 11:20 pmSSW 3.9 5.8 3.6 86.8 E30.05- 47.1 45.5----
2024-05-21 11:10 pmSSW 3.9 5.8----30.05- 46.9 45.5----
2024-05-21 11:00 pmSSW 3.9 3.9----30.05+0.01 46.9 45.5----
2024-05-21 10:50 pmSSW 1.9 3.9 3.6 86.5ESE30.05- 46.9 45.5----
2024-05-21 10:40 pm S 3.9 5.8----30.05- 46.9 45.5----
2024-05-21 10:30 pmSSW 3.9 5.8----30.05- 46.9 45.7----
2024-05-21 10:20 pmSSW 3.9 3.9 3.6 86.7 E30.05- 46.8 45.9----
2024-05-21 10:10 pm S 3.9 3.9 3.6-6.7 E30.04- 46.4 45.1----
2024-05-21 10:00 pm S 3.9 3.9----30.04+0.01 46.6 45.3----
2024-05-21 09:50 pm S 1.9 3.9 3.6 86.5 E30.03- 46.6 45.5----
2024-05-21 09:40 pm S 3.9 5.8----30.03- 46.8 45.5----
2024-05-21 09:30 pm S 3.9 3.9----30.03- 46.9 45.9----
2024-05-21 09:20 pmSSE 3.9 3.9 3.3 86.5 E30.02- 47.3 45.5----
2024-05-21 09:10 pmSSE 3.9 3.9 3.3-6.5 E30.02- 46.9 45.0----
2024-05-21 09:00 pmSSE 3.9 3.9----30.02+0.00 46.9 45.3 46.9---
2024-05-21 08:50 pmSSE 3.9 3.9 3.6 86.6ENE30.02- 47.1 45.1 47.1---
2024-05-21 08:40 pm SE 1.9 3.9----30.02- 47.5- 47.5---
2024-05-21 08:10 pmESE 1.9 1.9 3.6-6.4 E30.03- 48.4 46.2 48.4---
2024-05-21 08:00 pmESE 1.9 1.9----30.03+0.01 48.4 46.8 48.4---
2024-05-21 07:50 pm E 1.9 1.9 3.6 86.1 E30.03- 48.7 46.9 48.7---
2024-05-21 07:40 pm- 0.0 1.9----30.03- 49.1 47.8 49.1---
2024-05-21 07:30 pm S 1.9 1.9----30.03- 48.9 46.8 48.9---
2024-05-21 07:20 pm- 0.0 3.9 3.6 86.1 E30.02- 49.1 47.1 49.1---
2024-05-21 07:10 pmWNW 1.9 1.9----30.02- 49.1 47.5 49.1---
2024-05-21 07:00 pm NW 3.9 3.9----30.03+0.00 48.9 47.1 48.9---
2024-05-21 06:50 pm NW 1.9 5.8 3.9 96.2ESE30.02- 49.3 47.7 49.3---
2024-05-21 06:40 pmWNW 1.9 3.9----30.02- 49.5 46.9 49.5---
2024-05-21 06:30 pm- 0.0 1.9----30.02- 49.6 47.1 49.6---
2024-05-21 06:20 pm S 1.9 3.9 4.3 96.5 E30.02- 49.5 46.9 49.5---
2024-05-21 06:10 pm S 3.9 3.9 4.3-6.5 E30.02- 49.5 47.1 49.5---
2024-05-21 06:00 pm S 3.9 5.8----30.01-0.01 50.0 47.3 50.0---
2024-05-21 05:50 pm S 1.9 1.9 4.3 86.3 E30.02- 50.0 47.3 50.0---
2024-05-21 05:40 pm S 1.9 3.9 4.3-6.3 E30.02- 49.8 47.5 49.8---
2024-05-21 05:30 pmSSW 1.9 3.9----30.02- 50.2 47.8 50.2---
2024-05-21 05:20 pm- 0.0 1.9 4.6 86.4 E30.01- 50.5 47.8 50.5---
2024-05-21 05:10 pm- 0.0 1.9 4.6-6.4 E30.01- 50.2 48.0 50.2---
2024-05-21 05:00 pm W 1.9 3.9----30.02-0.01 49.6 48.2 49.6---
2024-05-21 04:50 pmWNW 1.9 1.9 4.3 86.1 E30.02- 49.5 48.7 49.5---
2024-05-21 04:40 pm NW 1.9 3.9 4.3-6.1 E30.02- 49.1 48.6 49.1---
2024-05-21 04:30 pm- 0.0 1.9----30.02- 49.1 48.6 49.1---
2024-05-21 04:20 pm- 0.0 1.9 3.9 85.9 E30.02- 49.1 48.2 49.1---
2024-05-21 04:10 pm- 0.0 1.9 3.9-5.9 E30.02- 48.7- 48.7---
2024-05-21 04:00 pm N 1.9 1.9----30.02-0.02 48.6 48.2 48.6---
2024-05-21 03:50 pm N 1.9 3.9 4.6 96.5 E30.02- 48.2 48.6 48.2---
2024-05-21 03:40 pm N 1.9 3.9 4.6-6.5 E30.02- 48.0 48.4 48.0---
2024-05-21 03:30 pm N 1.9 3.9----30.02- 48.0 48.7 48.0---
2024-05-21 03:20 pm N 3.9 3.9 4.3 86.1 E30.02- 47.8 48.7 47.8---
2024-05-21 03:10 pm N 3.9 3.9 4.3-6.1 E30.03- 47.8 48.6 47.8---
2024-05-21 03:00 pmNNE 1.9 3.9----30.03-0.03 47.8 49.1 47.8---
2024-05-21 02:50 pmNNE 1.9 3.9 4.3 86.1 E30.03- 47.7 49.1 47.7---
2024-05-21 02:40 pmNNE 3.9 5.8----30.03- 47.5 49.5 47.5---
2024-05-21 02:30 pm NE 3.9 5.8----30.03- 47.7 49.5 47.7---
2024-05-21 02:20 pmENE 3.9 5.8 4.3 96.2ENE30.03- 47.5 50.0 47.3---
2024-05-21 02:10 pmENE 5.8 5.8 4.3-6.2ENE30.03- 47.3 50.5 47.1---
2024-05-21 02:00 pmENE 5.8 7.8----30.03-0.01 47.1 51.3 46.9---
2024-05-21 01:50 pmENE 5.8 5.8 4.3 86.2ENE30.03- 47.3 52.3 47.1---

Detailed Wave Summary
for 44011 as of (1:10 pm ADT)
1610 GMT on 05/22/2024:

These wave data are displayed in rounded times.

     

Click on the graph icon in the table below to see a time series plot of the last five days of that observation.

5-day plot - Significant Wave Height Significant Wave Height (WVHT): 2.6 ft
5-day plot - Swell Height Swell Height (SwH): 2.3 ft
5-day plot - Swell Period Swell Period (SwP): 7.7 sec
5-day plot - Swell Direction Swell Direction (SwD):NNE
5-day plot - Wind Wave Height Wind Wave Height (WWH): 1.3 ft
5-day plot - Wind Wave Period Wind Wave Period (WWP): 3.0 sec
5-day plot - Wind Wave Direction Wind Wave Direction (WWD):SSW
5-day plot - Average Wave Period Average Wave Period (APD): 4.7 sec
Previous observations
TIME
(ADT)
5-day plot - Wave Height
WVHT
ft
5-day plot - Swell Height
SwH
ft
5-day plot - Swell Period
SwP
sec
5-day plot - Swell Direction
SwD
 
5-day plot - Wind Wave Height
WWH
ft
5-day plot - Wind Wave Period
WWP
sec
5-day plot - Wind Wave Direction
WWD
 
5-day plot - Wave Steepness
STEEPNESS
 
5-day plot - Average Wave Period
APD
sec
2024-05-22 12:40 pm 2.6 2.3 7.7 NE 1.3 3.0 SSW N/A 5.0
2024-05-22 12:10 pm 2.3 2.0 7.7NNE 1.0 2.9 SSW N/A 5.1
2024-05-22 11:40 am 2.6 2.3 7.1NNE 1.0 3.0 SW N/A 5.4
2024-05-22 11:10 am 2.6 2.3 7.7 E 1.0 2.9 SSW SWELL 5.2
2024-05-22 10:40 am 2.6 2.3 7.7ESE 1.0 2.7 WNW N/A 5.2
2024-05-22 10:10 am 2.3 2.3 7.7ESE 1.0 2.7 WNW N/A 5.5
2024-05-22 09:40 am 2.6 2.3 7.7ESE 0.7 2.9 WNW N/A 5.7
2024-05-22 09:10 am 2.6 2.3 7.1ESE 0.7 3.1 WNW N/A 5.9
2024-05-22 08:40 am 2.3 2.3 7.7 E 0.7 2.9 W N/A 5.8
2024-05-22 08:10 am 2.3 2.3 7.7ENE 0.7 4.0 ENE N/A 6.1
2024-05-22 07:40 am 2.3 2.3 7.7ENE 0.7 2.9 SW N/A 5.7
2024-05-22 07:10 am 2.3 2.3 7.7NNE 0.7 3.3 SW N/A 6.1
2024-05-22 06:40 am 2.6 2.3 7.7NNE 0.7 3.1 SSW N/A 6.3
2024-05-22 06:10 am 2.6 2.3 7.7 NW 0.7 3.8 SSW N/A 6.2
2024-05-22 05:40 am 2.6 2.6 7.1 W 0.7 4.0 S AVERAGE 6.1
2024-05-22 05:10 am 3.0 2.6 8.3 W 0.7 3.7 S SWELL 6.3
2024-05-22 04:40 am 3.0 2.6 8.3WSW 0.7 3.2 SSW SWELL 6.2
2024-05-22 04:10 am 3.0 3.0 8.3WSW 0.7 3.7 S SWELL 6.1
2024-05-22 03:40 am 3.0 3.0 7.7WSW 0.7 3.6 SSE AVERAGE 6.1
2024-05-22 03:10 am 3.3 3.0 7.7 SW 0.7 3.1 SSE AVERAGE 6.3
2024-05-22 02:40 am 3.3 3.3 8.3 SW 0.7 4.0 SSE SWELL 6.4
2024-05-22 02:10 am 3.3 3.3 8.3SSW 0.7 3.8 SSE SWELL 6.5
2024-05-22 01:40 am 3.3 3.3 7.7 S 0.7 3.7 SE AVERAGE 6.4
2024-05-22 01:10 am 3.3 3.3 8.3SSE 0.7 4.0 SE SWELL 6.4
2024-05-22 12:40 am 3.3 3.3 8.3 SE 0.7 4.0 SE SWELL 6.6
2024-05-22 12:10 am 3.3 3.3 8.3ENE 0.7 3.7 NE SWELL 6.4
2024-05-21 11:40 pm 3.3 3.3 8.3 E 0.7 3.8 E SWELL 6.7
2024-05-21 11:10 pm 3.6 3.6 8.3 E 0.7 3.8 E AVERAGE 6.8
2024-05-21 10:40 pm 3.6 3.3 7.7ESE 0.7 3.7 ESE AVERAGE 6.5
2024-05-21 10:10 pm 3.6 3.6 8.3 E 0.7 4.0 E AVERAGE 6.7
2024-05-21 09:40 pm 3.6 3.3 8.3 E 0.7 3.2 E SWELL 6.5
2024-05-21 09:10 pm 3.3 3.3 8.3 E 0.7 3.8 E SWELL 6.5
2024-05-21 08:40 pm 3.6 3.6 8.3ENE 1.0 3.7 ENE AVERAGE 6.6
2024-05-21 08:10 pm 3.6 3.6 8.3 E 1.0 4.0 E AVERAGE 6.4
2024-05-21 07:40 pm 3.6 3.3 8.3 E 1.0 3.8 E AVERAGE 6.1
2024-05-21 07:10 pm 3.6 3.6 8.3 E 1.0 3.2 E AVERAGE 6.1
2024-05-21 06:40 pm 3.9 3.6 9.1ESE 1.0 3.8 ESE SWELL 6.2
2024-05-21 06:10 pm 4.3 4.3 9.1 E 1.0 3.6 E SWELL 6.5
2024-05-21 05:40 pm 4.3 3.9 8.3 E 1.0 3.8 E AVERAGE 6.3
2024-05-21 05:10 pm 4.6 4.3 8.3 E 1.0 3.7 E AVERAGE 6.4
2024-05-21 04:40 pm 4.3 3.9 8.3 E 1.0 3.6 ENE AVERAGE 6.1
2024-05-21 04:10 pm 3.9 3.9 8.3 E 1.3 3.6 E AVERAGE 5.9
2024-05-21 03:40 pm 4.6 4.6 9.1 E 1.0 3.8 E SWELL 6.5
2024-05-21 03:10 pm 4.3 4.3 8.3 E 1.3 3.8 E AVERAGE 6.1
2024-05-21 02:40 pm 4.3 4.3 8.3 E 1.3 4.0 E AVERAGE 6.1
2024-05-21 02:10 pm 4.3 3.9 9.1ENE 1.0 3.8 ENE SWELL 6.2

Plot of wave energy versus frequency (and period)